Hurghada, Egypt

6:08 PM EET on August 19, 2017 (GMT +0200)
Hurghada

Weather History for HEGN - March, 2013

Change the Weather History Date:

Thursday, March 14, 2013

  Actual Average Record
Temperature  
Mean Temperature 77 °F -  
Max Temperature 94 °F 78 °F 94 °F (2013)
Min Temperature 60 °F 61 °F 42 °F (2017)
Cooling Degree Days 12    
Growing Degree Days 27 (Base 50)    
Moisture  
Dew Point 54 °F    
Average Humidity 48    
Maximum Humidity 78    
Minimum Humidity 18    
Precipitation  
Precipitation 0.00 in - - ()
Sea Level Pressure  
Sea Level Pressure 29.84 in    
Wind  
Wind Speed 4 mph ()    
Max Wind Speed 9 mph    
Max Gust Speed -    
Visibility 5.3 miles    
Events      
Averages and records for this station are not official NWS values.
T = Trace of Precipitation, MM = Missing Value Source: Averaged Metar Reports

Daily Weather History Graph

Daily Weather History Graph

Search for Another Location

Airport or City:

Trip Planner

Search our weather history database for the weather conditions in past years. The results will help you decide how hot, cold, wet, or windy it might be!

Date:

Astronomy

Mar. 14, 2013 Rise Set
Actual Time 5:55 AM EET 5:53 PM EET
Civil Twilight 5:32 AM EET 6:16 PM EET
Nautical Twilight 5:05 AM EET 6:43 PM EET
Astronomical Twilight 4:38 AM EET 7:10 PM EET
Moon 7:15 AM EET (3/14) 8:28 PM EET (3/14)
Length of Visible Light 12h 44m
Length of Day
11h 57m
Waxing Crescent, 7% of the Moon is Illuminated
Mar 14
Waxing Crescent
Mar 19
First Quarter
Mar 27
Full
Apr 3
Last Quarter
Apr 10
New

Hourly Weather History & Observations

Time (EET) Temp. Heat Index Dew Point Humidity Pressure Visibility Wind Dir Wind Speed Gust Speed Precip Events Conditions
12:00 AM 64.4 °F - 55.4 °F 73% 29.86 in - Calm Calm - N/A   Clear
1:00 AM 62.6 °F - 50.0 °F 63% 29.83 in - Calm Calm - N/A   Clear
2:00 AM 65 °F - 49 °F 46% 29.85 in 6 mi North 6.9 mph - -  
2:00 AM 64.4 °F - 50.0 °F 59% 29.83 in - North 6.9 mph - N/A   Clear
3:00 AM 68.0 °F - 60.8 °F 78% 29.86 in - NNW 6.9 mph - N/A   Clear
4:00 AM 62.6 °F - 53.6 °F 72% 29.86 in - Calm Calm - N/A   Clear
5:00 AM 60.8 °F - 17.6 °F 19% 29.86 in - WNW 3.5 mph - N/A   Clear
6:00 AM 62.6 °F - 44.6 °F 52% 29.86 in - WNW 3.5 mph - N/A   Clear
7:00 AM 64.4 °F - 42.8 °F 45% 29.86 in - NW 3.5 mph - N/A   Clear
8:00 AM 72 °F - 43 °F 24% 29.89 in 6 mi NW 4.6 mph - -  
8:00 AM 71.6 °F - 42.8 °F 35% 29.89 in - NW 4.6 mph - N/A   Clear
9:00 AM 78.8 °F - 57.2 °F 47% 29.89 in - North 4.6 mph - N/A   Clear
10:00 AM 84.2 °F 83.8 °F 59.0 °F 42% 29.89 in - North 6.9 mph - N/A   Clear
11:00 AM 87.8 °F 86.5 °F 57.2 °F 35% 29.89 in - NE 3.5 mph - N/A   Clear
12:31 PM 93.2 °F - 48.2 °F 21% 29.86 in - SE 4.6 mph - N/A   Clear
1:00 PM 93.2 °F - 51.8 °F 24% 29.83 in - ESE 8.1 mph - N/A   Clear
2:00 PM 92 °F - 54 °F 18% 29.82 in 5 mi SE 9.2 mph - -   Haze
2:00 PM 93.2 °F - 51.8 °F 24% 29.80 in 5.0 mi SE 9.2 mph - N/A   Unknown
3:00 PM 91.4 °F 89.4 °F 55.4 °F 29% 29.80 in 5.0 mi ESE 9.2 mph - N/A   Unknown
4:00 PM 89.6 °F 87.3 °F 53.6 °F 29% 29.80 in 5.0 mi ESE 9.2 mph - N/A   Unknown
5:00 PM 86.0 °F 85.4 °F 59.0 °F 40% 29.80 in 5.0 mi ESE 9.2 mph - N/A   Unknown
6:00 PM 78.8 °F - 62.6 °F 57% 29.80 in 5.0 mi SSE 6.9 mph - N/A   Unknown
7:00 PM 77.0 °F - 66.2 °F 69% 29.80 in 5.0 mi SSE 6.9 mph - N/A   Unknown
8:00 PM 76 °F - 67 °F 68% 29.82 in 6 mi SE 9.2 mph - -  
8:00 PM 77.0 °F - 68.0 °F 74% 29.80 in - SE 9.2 mph - N/A   Clear
9:00 PM 75.2 °F - 66.2 °F 73% 29.83 in - ESE 5.8 mph - N/A   Clear
10:00 PM 75.2 °F - 62.6 °F 65% 29.80 in - SE 2.3 mph - N/A   Clear
11:00 PM 75.2 °F - 64.4 °F 69% 29.83 in - SSE 6.9 mph - N/A   Clear